Date String (YYYY-MM-DD hh:mm:ss) UTC,Instrument flags,absolute air pressure of the measurement (hPa),sample flow rate (lpm),inlet stack bypass flow (lpm),air temperature of the measurement (°C),ambient temperature measured by the external sensor (°C),aerosol sample conditioner tube jacket temperature (°C),OPC LED temperature (°C),internal box temperature (°C),relative humidity of the measurement (%),span deviation,mass concentration of particles derived from Lorenz-Mie calculation of OPC scattering (μg/m³),mass concentration of particles derived from Lorenz-Mie calculation of OPC scattering (μg/m³),mass concentration of particles derived from Lorenz-Mie calculation of OPC scattering (μg/m³)
DateTimeUTC,F1_M11,P_M11,Q1_M11,Q2_M11,T1_M11,T2_M11,T3_M11,T4_M11,T5_M11,U1_M11,ZSPAN_M11,X0_M11,X2_M11,X1_M11
2023-08-27 14:00:00,SystemResetWarning,0835.6,5.00,000.00,030.8,027.4,000.0,038.6,030.9,33.1,0000.3,0010.82,0007.38,0007.03
2023-08-27 14:01:00,SystemResetWarning,0835.7,5.00,000.00,030.8,027.5,000.0,038.7,030.9,33.5,-000.1,0010.69,0007.35,0007.01
2023-08-27 14:02:00,SystemResetWarning,0835.6,5.00,000.00,030.8,027.6,000.0,038.7,030.9,33.3,0000.0,0010.55,0007.31,0006.98
2023-08-27 14:03:00,SystemResetWarning,0835.6,4.99,000.00,030.8,026.9,000.0,038.7,030.9,33.1,0000.2,0010.20,0007.30,0006.97
2023-08-27 14:04:00,SystemResetWarning,0835.6,5.00,000.00,030.8,025.3,000.0,038.5,030.7,33.3,-000.2,0010.17,0007.30,0006.95
2023-08-27 14:05:00,SystemResetWarning,0835.6,5.01,000.00,030.7,024.6,000.0,038.4,030.5,33.3,-000.5,0010.15,0007.31,0006.94
2023-08-27 14:06:00,SystemResetWarning,0835.6,5.01,000.00,030.5,024.7,000.0,038.5,030.3,33.4,-000.6,0010.14,0007.32,0006.94
2023-08-27 14:07:00,SystemResetWarning,0835.6,5.00,000.00,030.4,025.0,000.0,038.5,030.2,34.0,-000.4,0010.00,0007.32,0006.96
2023-08-27 14:08:00,SystemResetWarning,0835.6,4.99,000.00,030.3,025.4,000.0,038.5,030.3,34.0,-000.6,0010.60,0007.33,0006.97
2023-08-27 14:09:00,SystemResetWarning,0835.6,4.99,000.00,030.2,025.8,000.0,038.5,030.3,34.6,-000.5,0010.80,0007.39,0006.99
2023-08-27 14:10:00,SystemResetWarning,0835.6,5.02,000.00,030.2,026.2,000.0,038.5,030.4,35.1,-000.3,0010.88,0007.44,0007.02
2023-08-27 14:11:00,SystemResetWarning,0835.6,4.98,000.00,030.3,026.5,000.0,038.5,030.6,34.8,0000.0,0010.88,0007.47,0007.07
2023-08-27 14:12:00,SystemResetWarning,0835.6,5.00,000.00,030.4,026.7,000.0,038.5,030.6,34.7,0000.1,0010.93,0007.53,0007.13
2023-08-27 14:13:00,SystemResetWarning,0835.6,5.01,000.00,030.4,026.9,000.0,038.5,030.7,34.4,0000.4,0011.00,0007.62,0007.19
2023-08-27 14:14:00,SystemResetWarning,0835.6,4.98,000.00,030.4,027.1,000.0,038.5,030.7,34.7,0000.2,0011.12,0007.73,0007.28
2023-08-27 14:15:00,SystemResetWarning,0835.6,5.04,000.00,030.5,027.2,000.0,038.5,030.7,34.8,0000.3,0011.30,0007.84,0007.37
2023-08-27 14:16:00,SystemResetWarning,0835.8,4.97,000.00,030.6,027.4,000.0,038.6,030.8,34.4,0000.3,0011.40,0007.94,0007.48
2023-08-27 14:17:00,SystemResetWarning,0835.7,5.02,000.00,030.6,027.5,000.0,038.6,030.9,34.0,0000.4,0011.64,0008.06,0007.58
2023-08-27 14:18:00,SystemResetWarning,0835.7,5.00,000.00,030.7,027.6,000.0,038.6,030.9,33.9,0000.3,0011.79,0008.17,0007.69
2023-08-27 14:19:00,SystemResetWarning,0835.7,4.99,000.00,030.7,027.5,000.0,038.6,030.9,33.6,0000.2,0011.28,0008.26,0007.80
2023-08-27 14:20:00,SystemResetWarning,0835.6,4.99,000.00,030.7,026.1,000.0,038.5,030.8,33.5,0000.2,0011.17,0008.35,0007.92
2023-08-27 14:21:00,SystemResetWarning,0835.8,5.00,000.00,030.6,024.7,000.0,038.4,030.5,33.6,0000.1,0011.32,0008.45,0008.02
2023-08-27 14:22:00,SystemResetWarning,0835.7,5.01,000.00,030.5,024.4,000.0,038.3,030.3,33.7,-000.0,0011.54,0008.57,0008.11
2023-08-27 14:23:00,SystemResetWarning,0835.6,5.01,000.00,030.3,024.6,000.0,038.4,030.1,34.5,-000.0,0011.78,0008.66,0008.19
2023-08-27 14:24:00,SystemResetWarning,0835.6,4.98,000.00,030.2,025.0,000.0,038.4,030.2,35.6,-000.2,0011.78,0008.70,0008.26
2023-08-27 14:25:00,SystemResetWarning,0835.6,5.02,000.00,030.3,025.4,000.0,038.4,030.3,35.7,-000.3,0011.77,0008.71,0008.29
2023-08-27 14:26:00,SystemResetWarning,0835.6,5.00,000.00,030.6,025.8,000.0,038.4,030.5,35.5,-000.3,0011.63,0008.69,0008.31
2023-08-27 14:27:00,SystemResetWarning,0835.7,5.00,000.00,030.9,026.2,000.0,038.4,030.7,34.0,-000.4,0011.69,0008.67,0008.30
2023-08-27 14:28:00,SystemResetWarning,0835.8,4.98,000.00,031.1,026.5,000.0,038.5,030.8,34.0,-000.4,0011.49,0008.60,0008.28
2023-08-27 14:29:00,SystemResetWarning,0835.8,5.01,000.00,031.2,026.7,000.0,038.5,030.8,33.9,-000.4,0011.36,0008.55,0008.22
2023-08-27 14:30:00,SystemResetWarning,0835.8,5.00,000.00,031.2,026.9,000.0,038.6,030.8,33.7,-000.1,0011.40,0008.50,0008.14
2023-08-27 14:31:00,SystemResetWarning,0835.8,4.99,000.00,031.3,027.1,000.0,038.7,030.8,33.2,-000.1,0011.29,0008.44,0008.08
2023-08-27 14:32:00,SystemResetWarning,0835.8,5.00,000.00,031.3,027.2,000.0,038.8,030.8,32.2,0000.1,0011.17,0008.37,0008.03
2023-08-27 14:33:00,SystemResetWarning,0835.8,5.00,000.00,031.3,027.4,000.0,038.9,030.9,31.6,0000.1,0011.06,0008.30,0007.97
2023-08-27 14:34:00,SystemResetWarning,0835.8,5.00,000.00,031.3,027.5,000.0,039.0,030.9,31.8,0000.1,0010.94,0008.26,0007.92
2023-08-27 14:35:00,SystemResetWarning,0835.8,5.00,000.00,031.2,027.6,000.0,039.0,031.0,31.8,-000.1,0011.84,0008.25,0007.88
2023-08-27 14:36:00,SystemResetWarning,0835.8,4.99,000.00,031.3,027.0,000.0,039.0,030.9,31.4,-000.0,0011.97,0008.25,0007.85
2023-08-27 14:37:00,SystemResetWarning,0835.7,5.00,000.00,031.2,025.4,000.0,038.8,030.7,31.9,0000.2,0012.15,0008.24,0007.83
2023-08-27 14:38:00,SystemResetWarning,0835.7,5.01,000.00,031.1,024.6,000.0,038.7,030.5,32.0,0000.5,0012.08,0008.22,0007.81
2023-08-27 14:39:00,SystemResetWarning,0835.7,5.01,000.00,031.0,024.7,000.0,038.7,030.3,32.1,0000.5,0012.36,0008.28,0007.82
2023-08-27 14:40:00,SystemResetWarning,0835.7,4.99,000.00,030.8,025.0,000.0,038.8,030.3,32.0,0000.5,0012.50,0008.33,0007.87
2023-08-27 14:41:00,SystemResetWarning,0835.6,5.00,000.00,030.6,025.4,000.0,038.8,030.3,32.5,0000.3,0012.61,0008.39,0007.93
2023-08-27 14:42:00,SystemResetWarning,0835.7,5.01,000.00,030.6,025.8,000.0,038.8,030.4,33.4,0000.3,0012.66,0008.45,0007.97
2023-08-27 14:43:00,SystemResetWarning,0835.7,5.01,000.00,030.5,026.1,000.0,038.8,030.4,33.4,0000.3,0012.73,0008.51,0008.01
2023-08-27 14:44:00,SystemResetWarning,0835.7,4.99,000.00,030.5,026.4,000.0,038.8,030.5,33.8,0000.1,0012.83,0008.59,0008.05
2023-08-27 14:45:00,SystemResetWarning,0835.6,4.99,000.00,030.4,026.7,000.0,038.8,030.6,33.7,0000.6,0013.02,0008.61,0008.08
2023-08-27 14:46:00,SystemResetWarning,0835.7,5.00,000.00,030.4,026.9,000.0,038.7,030.6,33.2,0000.7,0012.61,0008.59,0008.09
2023-08-27 14:47:00,SystemResetWarning,0835.8,5.00,000.00,030.4,027.1,000.0,038.7,030.7,33.6,0000.9,0012.36,0008.58,0008.11
2023-08-27 14:48:00,SystemResetWarning,0835.6,5.00,000.00,030.3,027.2,000.0,038.7,030.7,33.9,0000.4,0012.17,0008.55,0008.10
2023-08-27 14:49:00,SystemResetWarning,0835.8,5.00,000.00,030.3,027.4,000.0,038.7,030.7,33.7,0000.4,0012.16,0008.56,0008.10
2023-08-27 14:50:00,SystemResetWarning,0835.7,5.01,000.00,030.3,027.5,000.0,038.7,030.8,33.0,0000.6,0011.93,0008.51,0008.08
2023-08-27 14:51:00,SystemResetWarning,0835.7,4.99,000.00,030.3,026.8,000.0,038.6,030.7,33.1,0000.4,0011.87,0008.52,0008.08
2023-08-27 14:52:00,SystemResetWarning,0835.7,5.00,000.00,030.2,025.3,000.0,038.4,030.4,32.8,-000.1,0011.75,0008.51,0008.08
2023-08-27 14:53:00,SystemResetWarning,0835.7,5.01,000.00,030.2,024.6,000.0,038.3,030.3,33.3,-000.6,0011.82,0008.53,0008.08
2023-08-27 14:54:00,SystemResetWarning,0835.7,5.01,000.00,030.0,024.7,000.0,038.3,030.1,33.7,-000.5,0012.09,0008.54,0008.10
2023-08-27 14:55:00,SystemResetWarning,0835.7,5.00,000.00,029.8,025.0,000.0,038.3,030.1,34.1,-000.2,0012.73,0008.54,0008.11
2023-08-27 14:56:00,SystemResetWarning,0835.7,5.00,000.00,029.8,025.4,000.0,038.3,030.1,34.0,-000.3,0012.71,0008.61,0008.14
2023-08-27 14:57:00,SystemResetWarning,0835.6,5.00,000.00,029.7,025.8,000.0,038.2,030.2,33.5,0000.1,0012.31,0008.66,0008.19
2023-08-27 14:58:00,SystemResetWarning,0835.7,5.00,000.00,029.7,026.2,000.0,038.2,030.3,33.5,0000.1,0012.51,0008.69,0008.20
2023-08-27 14:59:00,SystemResetWarning,0835.7,5.00,000.00,029.6,026.4,000.0,038.2,030.3,33.7,0000.4,0012.60,0008.73,0008.21
